Hourly Data Report for December 08, 2018

EUREKA CLIMATE
NUNAVUT
Current Station Operator: ECCC - MSC

79°59'21.000" N
85°56'02.000" W
10.00 m
2401199
71613
NEK

Download Data

Hourly Data (December 2018)
Hourly Data Report for December 8, 2018
TIME
LST
Temp Definition
°C
Dew Point Definition
°C
Rel Hum Definition
%
Precip. Amount Definition
mm

Wind Dir Definition
10's deg

Wind Spd Definition
km/h
Visibility Definition
km
Stn Press Definition
kPa
Hmdx Definition


Wind Chill Definition


Weather Definition


00:00 -30.8 -33.8 75 0.0 9 10   100.59   -40 LegendNANA
01:00 -31.8 -34.9 74 0.0 11 7   100.64   -39 LegendNANA
02:00 -30.2 -33.1 76 0.0 6 5   100.70   -36 LegendNANA
03:00 -31.9 -35.0 74 0.0 4 12   100.73   -42 LegendNANA
04:00 -32.7 -35.9 73 0.0 9 3   100.78   -36 LegendNANA
05:00 -32.1 -35.2 74 0.0 33 6   100.80   -39 LegendNANA
06:00 -31.9 -35.0 74 0.0 12 6   100.82   -39 LegendNANA
07:00 -30.5 -33.4 75 0.0 9 6   100.84   -37 LegendNANA
08:00 -28.5 -31.2 77 0.0 7 10   100.88   -37 LegendNANA
09:00 -28.6 -31.2 78 0.0 3 5   100.91   -34 LegendNANA
10:00 -28.8 -31.9 75 0.0 4 8   100.92   -37 LegendNANA
11:00 -27.7 -30.4 77 0.0 11 14   100.93   -38 LegendNANA
12:00 -26.8 -29.3 79 0.0 16 7   100.97   -34 LegendNANA
13:00 -26.8 -29.3 79 0.0 13 9   101.00   -35 LegendNANA
14:00 -25.3 -27.7 80 0.0 14 21   101.02   -37 LegendNANA
15:00 -24.3 -26.7 80 0.0 13 27   101.03   -38 LegendNANA
16:00 -23.8 -26.3 80 0.0 13 27   101.07   -37 LegendNANA
17:00 -22.9 -25.3 80 0.0 13 28   101.08   -36 LegendNANA
18:00 -22.4 -24.5 83 0.0 12 27   101.08   -35 LegendNANA
19:00 -22.3 -24.5 82 0.0 13 25   101.10   -35 LegendNANA
20:00 -22.4 -24.5 83 0.0 12 39   101.07   -37 LegendNANA
21:00 -22.9 -24.9 83 0.0 13 42   101.03   -38 LegendNANA
22:00 -22.2 -24.1 85 0.0 14 37   100.98   -37 LegendNANA
23:00 -21.5 -23.3 85 0.0 15 41   100.94   -36 LegendNANA

Notes on Data Quality.

Legend

  • E = Estimated
  • M = Missing
  • NA = Not Available*
  • [empty] = Indicates an unobserved value
Date modified: